Time,TemperatureF,DewpointF,PressureIn,WindDirection,WindDirectionDegrees,WindSpeedMPH,WindSpeedGustMPH,Humidity,HourlyPrecipIn,Conditions,Clouds,dailyrainin,SoftwareType,DateUTC
2013-01-14 00:05:00,64.4,60.3,29.64,West,270,0.0,0.7,83,0.00,,,0.00,fowsr,2013-01-14 05:05:00,
2013-01-14 00:10:00,64.4,60.3,29.64,South,180,0.0,0.7,83,0.00,,,0.00,fowsr,2013-01-14 05:10:00,
2013-01-14 00:15:00,64.4,60.3,29.65,East,90,0.0,1.6,83,0.00,,,0.00,fowsr,2013-01-14 05:15:00,
2013-01-14 00:20:00,64.4,60.3,29.60,East,90,0.7,1.6,83,0.00,,,0.00,fowsr,2013-01-14 05:20:00,
2013-01-14 00:25:00,64.4,60.3,29.65,SE,135,0.0,1.6,83,0.00,,,0.00,fowsr,2013-01-14 05:25:00,
2013-01-14 00:30:00,64.4,60.3,29.65,SE,135,0.7,1.6,83,0.00,,,0.00,fowsr,2013-01-14 05:30:00,
2013-01-14 00:40:00,64.2,59.9,29.65,East,90,0.0,0.7,82,0.00,,,0.00,fowsr,2013-01-14 05:40:00,
2013-01-14 00:45:00,64.2,59.9,29.65,East,90,0.0,0.7,82,0.00,,,0.00,fowsr,2013-01-14 05:45:00,
2013-01-14 00:55:00,63.9,59.5,29.65,NE,45,0.0,0.7,82,0.00,,,0.00,fowsr,2013-01-14 05:55:00,
2013-01-14 01:00:00,63.9,59.5,29.65,East,90,0.0,0.7,82,0.00,,,0.00,fowsr,2013-01-14 06:00:00,
2013-01-14 01:05:00,63.9,59.5,29.65,East,90,0.0,0.7,82,0.00,,,0.00,fowsr,2013-01-14 06:05:00,
2013-01-14 01:10:00,63.7,59.4,29.65,SE,135,0.0,0.7,82,0.00,,,0.00,fowsr,2013-01-14 06:10:00,
2013-01-14 01:15:00,63.7,59.4,29.65,SE,135,0.0,0.7,82,0.00,,,0.00,fowsr,2013-01-14 06:15:00,
2013-01-14 01:20:00,63.5,59.2,29.66,WNW,292,0.0,0.7,82,0.00,,,0.00,fowsr,2013-01-14 06:20:00,
2013-01-14 01:25:00,63.3,59.0,29.65,East,90,0.7,1.6,82,0.00,,,0.00,fowsr,2013-01-14 06:25:00,
2013-01-14 01:35:00,63.3,59.0,29.65,SE,135,0.0,1.6,82,0.00,,,0.00,fowsr,2013-01-14 06:35:00,
2013-01-14 01:40:00,63.1,58.8,29.65,SE,135,0.0,0.0,82,0.00,,,0.00,fowsr,2013-01-14 06:40:00,
2013-01-14 01:45:00,63.0,58.7,29.65,SE,135,0.0,0.0,82,0.00,,,0.00,fowsr,2013-01-14 06:45:00,
2013-01-14 01:50:00,63.0,58.7,29.66,South,180,0.0,0.7,82,0.00,,,0.00,fowsr,2013-01-14 06:50:00,
2013-01-14 02:00:00,62.6,58.3,29.66,East,90,0.0,0.7,82,0.00,,,0.00,fowsr,2013-01-14 07:00:00,
2013-01-14 02:05:00,62.6,58.3,29.66,East,90,0.0,0.7,82,0.00,,,0.00,fowsr,2013-01-14 07:05:00,
2013-01-14 02:10:00,62.6,58.3,29.66,SE,135,0.0,0.7,82,0.00,,,0.00,fowsr,2013-01-14 07:10:00,
2013-01-14 02:15:00,62.6,58.3,29.66,South,180,0.0,1.6,82,0.00,,,0.00,fowsr,2013-01-14 07:15:00,
2013-01-14 02:25:00,-999.9,-99.9,29.66,North,3060,916.0,916.0,255,0.00,,,0.00,fowsr,2013-01-14 07:25:00,
2013-01-14 02:30:00,-999.9,-99.9,29.66,North,3060,916.0,916.0,255,0.00,,,0.00,fowsr,2013-01-14 07:30:00,
2013-01-14 02:35:00,-999.9,-99.9,29.66,North,3060,916.0,916.0,255,0.00,,,0.00,fowsr,2013-01-14 07:35:00,
2013-01-14 02:40:00,-999.9,-99.9,29.67,North,3060,916.0,916.0,255,0.00,,,0.00,fowsr,2013-01-14 07:40:00,
2013-01-14 02:45:00,-999.9,-99.9,29.66,North,3060,916.0,916.0,255,0.00,,,0.00,fowsr,2013-01-14 07:45:00,
2013-01-14 02:50:00,-999.9,-99.9,29.66,North,3060,916.0,916.0,255,0.00,,,0.00,fowsr,2013-01-14 07:50:00,
2013-01-14 02:55:00,-999.9,-99.9,29.62,North,3060,916.0,916.0,255,0.00,,,0.00,fowsr,2013-01-14 07:55:00,
2013-01-14 03:00:00,61.9,57.9,29.62,NE,45,0.0,0.7,83,0.00,,,0.00,fowsr,2013-01-14 08:00:00,
2013-01-14 03:10:00,-999.9,-99.9,29.67,North,2925,916.0,916.0,255,0.00,,,0.00,fowsr,2013-01-14 08:10:00,
2013-01-14 03:15:00,-999.9,-99.9,29.67,North,2925,916.0,916.0,255,0.00,,,0.00,fowsr,2013-01-14 08:15:00,
2013-01-14 03:20:00,-999.9,-99.9,29.67,North,2925,916.0,916.0,255,0.00,,,0.00,fowsr,2013-01-14 08:20:00,
2013-01-14 03:25:00,-999.9,-99.9,29.67,North,2925,916.0,916.0,255,0.00,,,0.00,fowsr,2013-01-14 08:25:00,
2013-01-14 03:35:00,60.8,57.1,29.66,East,90,0.0,0.0,84,0.00,,,0.00,fowsr,2013-01-14 08:35:00,
2013-01-14 03:40:00,60.4,57.0,29.66,East,90,0.0,0.0,85,0.00,,,0.00,fowsr,2013-01-14 08:40:00,
2013-01-14 03:45:00,60.3,56.8,29.66,East,90,0.0,0.0,85,0.00,,,0.00,fowsr,2013-01-14 08:45:00,
2013-01-14 03:50:00,60.1,56.6,29.66,East,90,0.0,0.0,85,0.00,,,0.00,fowsr,2013-01-14 08:50:00,
2013-01-14 03:55:00,60.1,56.6,29.67,East,90,0.0,0.0,85,0.00,,,0.00,fowsr,2013-01-14 08:55:00,
2013-01-14 04:00:00,59.5,56.1,29.67,East,90,0.0,0.0,85,0.00,,,0.00,fowsr,2013-01-14 09:00:00,
2013-01-14 04:05:00,59.5,56.3,29.66,East,90,0.0,0.0,86,0.00,,,0.00,fowsr,2013-01-14 09:05:00,
2013-01-14 04:10:00,59.2,56.0,29.66,East,90,0.0,0.0,86,0.00,,,0.00,fowsr,2013-01-14 09:10:00,
2013-01-14 04:15:00,59.0,56.0,29.66,East,90,0.0,0.0,87,0.00,,,0.00,fowsr,2013-01-14 09:15:00,
2013-01-14 04:20:00,59.0,56.0,29.66,East,90,0.0,0.0,87,0.00,,,0.00,fowsr,2013-01-14 09:20:00,
2013-01-14 04:25:00,58.8,56.1,29.66,East,90,0.0,0.0,88,0.00,,,0.00,fowsr,2013-01-14 09:25:00,
2013-01-14 04:30:00,58.8,56.3,29.66,East,90,0.0,0.0,89,0.00,,,0.00,fowsr,2013-01-14 09:30:00,
2013-01-14 04:35:00,58.6,56.2,29.65,East,90,0.0,0.0,89,0.00,,,0.00,fowsr,2013-01-14 09:35:00,
2013-01-14 04:40:00,58.5,56.0,29.65,East,90,0.0,0.0,89,0.00,,,0.00,fowsr,2013-01-14 09:40:00,
2013-01-14 04:45:00,58.5,56.0,29.65,East,90,0.0,0.0,89,0.00,,,0.00,fowsr,2013-01-14 09:45:00,
2013-01-14 04:50:00,58.5,56.2,29.65,SE,135,0.0,0.7,90,0.00,,,0.00,fowsr,2013-01-14 09:50:00,
2013-01-14 04:55:00,58.6,56.4,29.65,SE,135,0.0,0.0,90,0.00,,,0.00,fowsr,2013-01-14 09:55:00,
2013-01-14 05:00:00,58.8,56.8,29.65,SE,135,0.7,1.6,91,0.00,,,0.00,fowsr,2013-01-14 10:00:00,
2013-01-14 05:05:00,58.8,56.8,29.65,SE,135,0.7,1.6,91,0.00,,,0.00,fowsr,2013-01-14 10:05:00,
2013-01-14 05:10:00,59.4,57.1,29.65,SE,135,0.7,1.6,90,0.00,,,0.00,fowsr,2013-01-14 10:10:00,
2013-01-14 05:15:00,59.5,57.3,29.65,SE,135,0.7,1.6,90,0.00,,,0.00,fowsr,2013-01-14 10:15:00,
2013-01-14 05:20:00,59.7,57.5,29.65,SE,135,0.0,0.7,90,0.00,,,0.00,fowsr,2013-01-14 10:20:00,
2013-01-14 05:25:00,59.9,57.6,29.65,SE,135,0.7,2.2,90,0.00,,,0.00,fowsr,2013-01-14 10:25:00,
2013-01-14 05:30:00,59.9,57.4,29.65,SE,135,0.0,0.7,89,0.00,,,0.00,fowsr,2013-01-14 10:30:00,
2013-01-14 05:35:00,60.1,57.6,29.65,SE,135,0.0,1.6,89,0.00,,,0.00,fowsr,2013-01-14 10:35:00,
2013-01-14 05:40:00,60.3,57.8,29.65,SE,135,0.7,1.6,89,0.00,,,0.00,fowsr,2013-01-14 10:40:00,
2013-01-14 05:50:00,60.3,57.5,29.65,SE,135,0.0,1.6,88,0.00,,,0.00,fowsr,2013-01-14 10:50:00,
2013-01-14 05:55:00,60.3,57.5,29.65,East,90,0.0,0.7,88,0.00,,,0.00,fowsr,2013-01-14 10:55:00,
2013-01-14 06:00:00,60.4,57.7,29.65,East,90,0.0,0.7,88,0.00,,,0.00,fowsr,2013-01-14 11:00:00,
2013-01-14 06:05:00,60.4,57.7,29.65,SE,135,0.7,1.6,88,0.00,,,0.00,fowsr,2013-01-14 11:05:00,
2013-01-14 06:10:00,60.4,57.7,29.65,SE,135,0.7,1.6,88,0.00,,,0.00,fowsr,2013-01-14 11:10:00,
2013-01-14 06:15:00,-999.9,-99.9,29.65,North,3015,916.0,916.0,255,0.00,,,0.00,fowsr,2013-01-14 11:15:00,
2013-01-14 06:20:00,-999.9,-99.9,29.65,North,3015,916.0,916.0,255,0.00,,,0.00,fowsr,2013-01-14 11:20:00,
2013-01-14 06:25:00,-999.9,-99.9,29.66,North,3015,916.0,916.0,255,0.00,,,0.00,fowsr,2013-01-14 11:25:00,
2013-01-14 06:30:00,60.4,57.5,29.66,SE,135,0.0,1.6,87,0.00,,,0.00,fowsr,2013-01-14 11:30:00,
2013-01-14 06:40:00,60.4,57.5,29.66,SE,135,0.7,1.6,87,0.00,,,0.00,fowsr,2013-01-14 11:40:00,
2013-01-14 06:45:00,-999.9,-99.9,29.67,North,3015,916.0,916.0,255,0.00,,,0.00,fowsr,2013-01-14 11:45:00,
2013-01-14 06:50:00,-999.9,-99.9,29.67,North,3015,916.0,916.0,255,0.00,,,0.00,fowsr,2013-01-14 11:50:00,
2013-01-14 06:55:00,-999.9,-99.9,29.67,North,3015,916.0,916.0,255,0.00,,,0.00,fowsr,2013-01-14 11:55:00,
2013-01-14 07:00:00,-999.9,-99.9,29.67,North,3015,916.0,916.0,255,0.00,,,0.00,fowsr,2013-01-14 12:00:00,
2013-01-14 07:05:00,-999.9,-99.9,29.66,North,3015,916.0,916.0,255,0.00,,,0.00,fowsr,2013-01-14 12:05:00,
2013-01-14 07:10:00,-999.9,-99.9,29.67,North,3015,916.0,916.0,255,0.00,,,0.00,fowsr,2013-01-14 12:10:00,
2013-01-14 07:15:00,-999.9,-99.9,29.67,North,3015,916.0,916.0,255,0.00,,,0.00,fowsr,2013-01-14 12:15:00,
2013-01-14 07:25:00,60.6,57.4,29.68,South,180,0.0,0.7,86,0.00,,,0.00,fowsr,2013-01-14 12:25:00,
2013-01-14 07:30:00,-999.9,-99.9,29.68,North,3060,916.0,916.0,255,0.00,,,0.00,fowsr,2013-01-14 12:30:00,
2013-01-14 07:35:00,-999.9,-99.9,29.68,North,3060,916.0,916.0,255,0.00,,,0.00,fowsr,2013-01-14 12:35:00,
2013-01-14 07:40:00,-999.9,-99.9,29.68,North,3060,916.0,916.0,255,0.00,,,0.00,fowsr,2013-01-14 12:40:00,
2013-01-14 07:45:00,-999.9,-99.9,29.68,North,3060,916.0,916.0,255,0.00,,,0.00,fowsr,2013-01-14 12:45:00,
2013-01-14 07:50:00,-999.9,-99.9,29.68,North,3060,916.0,916.0,255,0.00,,,0.00,fowsr,2013-01-14 12:50:00,
2013-01-14 07:55:00,-999.9,-99.9,29.69,North,3060,916.0,916.0,255,0.00,,,0.00,fowsr,2013-01-14 12:55:00,
2013-01-14 08:00:00,-999.9,-99.9,29.69,North,3060,916.0,916.0,255,0.00,,,0.00,fowsr,2013-01-14 13:00:00,
2013-01-14 08:05:00,-999.9,-99.9,29.69,North,3060,916.0,916.0,255,0.00,,,0.00,fowsr,2013-01-14 13:05:00,
2013-01-14 08:10:00,60.8,57.3,29.69,SE,135,0.7,1.6,85,0.00,,,0.00,fowsr,2013-01-14 13:10:00,
2013-01-14 08:15:00,60.8,57.3,29.68,SE,135,0.7,1.6,85,0.00,,,0.00,fowsr,2013-01-14 13:15:00,
2013-01-14 08:20:00,60.8,57.3,29.68,SSE,157,0.0,1.6,85,0.00,,,0.00,fowsr,2013-01-14 13:20:00,
2013-01-14 08:25:00,60.8,57.1,29.69,SE,135,0.7,2.2,84,0.00,,,0.00,fowsr,2013-01-14 13:25:00,
2013-01-14 08:30:00,60.8,57.1,29.69,East,90,0.7,1.6,84,0.00,,,0.00,fowsr,2013-01-14 13:30:00,
2013-01-14 08:35:00,60.8,57.1,29.68,East,90,0.7,1.6,84,0.00,,,0.00,fowsr,2013-01-14 13:35:00,
2013-01-14 08:40:00,60.8,57.3,29.69,SE,135,0.0,0.7,85,0.00,,,0.00,fowsr,2013-01-14 13:40:00,
2013-01-14 08:45:00,61.0,57.5,29.69,SE,135,0.7,1.6,85,0.00,,,0.00,fowsr,2013-01-14 13:45:00,
2013-01-14 08:50:00,61.2,57.7,29.69,SE,135,0.7,2.2,85,0.00,,,0.00,fowsr,2013-01-14 13:50:00,
2013-01-14 08:55:00,61.3,57.6,29.64,SE,135,0.0,0.7,84,0.00,,,0.00,fowsr,2013-01-14 13:55:00,
2013-01-14 09:00:00,61.3,57.6,29.69,South,180,0.7,1.6,84,0.00,,,0.00,fowsr,2013-01-14 14:00:00,
2013-01-14 09:05:00,61.5,57.8,29.69,SE,135,0.0,0.7,84,0.00,,,0.00,fowsr,2013-01-14 14:05:00,
2013-01-14 09:10:00,61.7,57.9,29.70,SE,135,1.6,3.1,84,0.00,,,0.00,fowsr,2013-01-14 14:10:00,
2013-01-14 09:15:00,61.9,58.1,29.70,East,90,1.6,2.2,84,0.00,,,0.00,fowsr,2013-01-14 14:15:00,
2013-01-14 09:20:00,61.9,58.1,29.70,East,90,0.0,0.7,84,0.00,,,0.00,fowsr,2013-01-14 14:20:00,
2013-01-14 09:25:00,62.1,58.3,29.70,SE,135,0.0,0.7,84,0.00,,,0.00,fowsr,2013-01-14 14:25:00,
2013-01-14 09:30:00,62.1,58.3,29.71,SE,135,0.0,0.7,84,0.00,,,0.00,fowsr,2013-01-14 14:30:00,
2013-01-14 09:35:00,62.2,58.5,29.71,SE,135,0.0,0.0,84,0.00,,,0.00,fowsr,2013-01-14 14:35:00,
2013-01-14 09:40:00,62.4,58.6,29.71,SE,135,0.7,3.1,84,0.00,,,0.00,fowsr,2013-01-14 14:40:00,
2013-01-14 09:45:00,62.6,58.6,29.71,SE,135,0.7,1.6,83,0.00,,,0.00,fowsr,2013-01-14 14:45:00,
2013-01-14 09:50:00,62.8,58.7,29.71,SE,135,0.0,0.0,83,0.00,,,0.00,fowsr,2013-01-14 14:50:00,
2013-01-14 09:55:00,63.0,58.7,29.71,SE,135,2.2,3.1,82,0.00,,,0.00,fowsr,2013-01-14 14:55:00,
2013-01-14 10:00:00,63.1,58.8,29.71,SE,135,1.6,2.2,82,0.00,,,0.00,fowsr,2013-01-14 15:00:00,
2013-01-14 10:05:00,63.1,58.8,29.71,SE,135,0.0,0.7,82,0.00,,,0.00,fowsr,2013-01-14 15:05:00,
2013-01-14 10:10:00,63.3,59.0,29.71,SE,135,0.0,0.7,82,0.00,,,0.00,fowsr,2013-01-14 15:10:00,
2013-01-14 10:15:00,63.5,59.2,29.71,ESE,112,0.0,0.7,82,0.00,,,0.00,fowsr,2013-01-14 15:15:00,
2013-01-14 10:20:00,63.5,59.2,29.71,SE,135,0.0,1.6,82,0.00,,,0.00,fowsr,2013-01-14 15:20:00,
2013-01-14 10:25:00,63.5,59.2,29.71,NW,315,0.0,0.7,82,0.00,,,0.00,fowsr,2013-01-14 15:25:00,
2013-01-14 10:30:00,63.7,59.4,29.70,South,180,0.7,2.2,82,0.00,,,0.00,fowsr,2013-01-14 15:30:00,
2013-01-14 10:35:00,63.9,59.5,29.70,SE,135,0.0,0.0,82,0.00,,,0.00,fowsr,2013-01-14 15:35:00,
2013-01-14 10:40:00,63.9,59.5,29.70,SE,135,0.0,0.0,82,0.00,,,0.00,fowsr,2013-01-14 15:40:00,
2013-01-14 10:45:00,64.2,59.9,29.69,SSE,157,0.0,0.7,82,0.00,,,0.00,fowsr,2013-01-14 15:45:00,
2013-01-14 10:50:00,64.2,59.9,29.69,SSE,157,0.0,0.7,82,0.00,,,0.00,fowsr,2013-01-14 15:50:00,
2013-01-14 10:55:00,64.9,60.6,29.69,West,270,0.0,0.7,82,0.00,,,0.00,fowsr,2013-01-14 15:55:00,
2013-01-14 11:00:00,65.1,60.8,29.69,NE,45,0.0,0.0,82,0.00,,,0.00,fowsr,2013-01-14 16:00:00,
2013-01-14 11:05:00,65.3,60.9,29.69,SE,135,1.6,2.2,82,0.00,,,0.00,fowsr,2013-01-14 16:05:00,
2013-01-14 11:10:00,65.7,61.3,29.69,NE,45,0.0,0.0,82,0.00,,,0.00,fowsr,2013-01-14 16:10:00,
2013-01-14 11:15:00,66.2,61.5,29.69,SE,135,0.0,0.7,81,0.00,,,0.00,fowsr,2013-01-14 16:15:00,
2013-01-14 11:25:00,66.9,62.0,29.68,East,90,0.0,1.6,80,0.00,,,0.00,fowsr,2013-01-14 16:25:00,
2013-01-14 11:30:00,67.1,61.9,29.68,North,0,0.0,0.7,79,0.00,,,0.00,fowsr,2013-01-14 16:30:00,
2013-01-14 11:35:00,67.3,62.0,29.67,SE,135,0.7,0.7,79,0.00,,,0.00,fowsr,2013-01-14 16:35:00,
2013-01-14 11:40:00,67.3,62.0,29.67,East,90,0.0,0.7,79,0.00,,,0.00,fowsr,2013-01-14 16:40:00,
2013-01-14 11:45:00,67.5,62.2,29.67,NE,45,0.7,2.2,79,0.00,,,0.00,fowsr,2013-01-14 16:45:00,
2013-01-14 11:50:00,67.5,62.2,29.67,SE,135,0.7,3.1,79,0.00,,,0.00,fowsr,2013-01-14 16:50:00,
2013-01-14 11:55:00,67.6,62.4,29.67,East,90,0.7,1.6,79,0.00,,,0.00,fowsr,2013-01-14 16:55:00,
2013-01-14 12:00:00,67.8,62.6,29.66,SE,135,1.6,3.1,79,0.00,,,0.00,fowsr,2013-01-14 17:00:00,
2013-01-14 12:05:00,68.0,62.4,29.67,SE,135,0.0,1.6,78,0.00,,,0.00,fowsr,2013-01-14 17:05:00,
2013-01-14 12:10:00,68.2,62.6,29.66,SE,135,0.7,1.6,78,0.00,,,0.00,fowsr,2013-01-14 17:10:00,
2013-01-14 12:15:00,68.4,62.5,29.66,SE,135,0.7,1.6,77,0.00,,,0.00,fowsr,2013-01-14 17:15:00,
2013-01-14 12:20:00,68.5,62.7,29.66,NE,45,0.0,1.6,77,0.00,,,0.00,fowsr,2013-01-14 17:20:00,
2013-01-14 12:25:00,68.7,62.9,29.66,South,180,0.0,0.7,77,0.00,,,0.00,fowsr,2013-01-14 17:25:00,
2013-01-14 12:30:00,68.9,63.0,29.65,SW,225,0.0,0.7,77,0.00,,,0.00,fowsr,2013-01-14 17:30:00,
2013-01-14 12:35:00,69.1,62.9,29.66,South,180,0.0,0.7,76,0.00,,,0.00,fowsr,2013-01-14 17:35:00,
2013-01-14 12:40:00,69.3,63.4,29.65,SE,135,0.7,1.6,77,0.00,,,0.00,fowsr,2013-01-14 17:40:00,
2013-01-14 12:45:00,69.3,63.1,29.65,NW,315,0.7,3.8,76,0.00,,,0.00,fowsr,2013-01-14 17:45:00,
2013-01-14 12:50:00,69.3,63.1,29.65,NW,315,0.0,0.0,76,0.00,,,0.00,fowsr,2013-01-14 17:50:00,
2013-01-14 12:55:00,69.4,63.3,29.65,NW,315,0.0,0.7,76,0.00,,,0.00,fowsr,2013-01-14 17:55:00,
2013-01-14 13:00:00,69.6,63.4,29.65,NW,315,0.0,0.0,76,0.00,,,0.00,fowsr,2013-01-14 18:00:00,
2013-01-14 13:05:00,69.6,63.4,29.65,NW,315,0.0,0.0,76,0.00,,,0.00,fowsr,2013-01-14 18:05:00,
2013-01-14 13:10:00,69.8,63.3,29.65,NW,315,0.0,0.7,75,0.00,,,0.00,fowsr,2013-01-14 18:10:00,
2013-01-14 13:15:00,69.8,63.3,29.65,NW,315,0.0,0.7,75,0.00,,,0.00,fowsr,2013-01-14 18:15:00,
2013-01-14 13:20:00,-999.9,-99.9,29.65,North,3195,916.0,916.0,255,0.00,,,0.00,fowsr,2013-01-14 18:20:00,
2013-01-14 13:25:00,70.3,63.5,29.65,SW,225,0.7,1.6,74,0.00,,,0.00,fowsr,2013-01-14 18:25:00,
2013-01-14 13:35:00,70.5,63.7,29.65,SE,135,0.0,1.6,74,0.00,,,0.00,fowsr,2013-01-14 18:35:00,
2013-01-14 13:40:00,70.5,63.7,29.65,NW,315,0.0,0.0,74,0.00,,,0.00,fowsr,2013-01-14 18:40:00,
2013-01-14 13:45:00,70.5,63.7,29.65,NW,315,0.0,0.0,74,0.00,,,0.00,fowsr,2013-01-14 18:45:00,
2013-01-14 13:50:00,-999.9,-99.9,29.65,North,3195,916.0,916.0,255,0.00,,,0.00,fowsr,2013-01-14 18:50:00,
2013-01-14 13:55:00,70.3,63.5,29.64,North,0,0.0,0.0,74,0.00,,,0.00,fowsr,2013-01-14 18:55:00,
2013-01-14 14:00:00,70.2,63.4,29.65,NW,315,0.0,0.0,74,0.00,,,0.00,fowsr,2013-01-14 19:00:00,
2013-01-14 14:05:00,70.2,63.7,29.65,NW,315,0.0,0.0,75,0.00,,,0.00,fowsr,2013-01-14 19:05:00,
2013-01-14 14:10:00,70.2,63.7,29.64,NW,315,0.0,0.7,75,0.00,,,0.00,fowsr,2013-01-14 19:10:00,
2013-01-14 14:20:00,70.2,63.7,29.65,NW,315,0.0,0.0,75,0.00,,,0.00,fowsr,2013-01-14 19:20:00,
2013-01-14 14:25:00,70.2,63.7,29.65,East,90,0.0,0.0,75,0.00,,,0.00,fowsr,2013-01-14 19:25:00,
2013-01-14 14:30:00,70.2,64.0,29.65,East,90,0.0,0.0,76,0.00,,,0.00,fowsr,2013-01-14 19:30:00,
2013-01-14 14:35:00,70.2,64.2,29.65,East,90,0.0,0.0,77,0.00,,,0.00,fowsr,2013-01-14 19:35:00,
2013-01-14 14:40:00,70.2,64.2,29.65,East,90,0.0,0.0,77,0.00,,,0.00,fowsr,2013-01-14 19:40:00,
2013-01-14 14:45:00,70.0,64.1,29.65,East,90,0.0,0.0,77,0.00,,,0.00,fowsr,2013-01-14 19:45:00,
2013-01-14 14:50:00,70.0,64.1,29.65,East,90,0.0,0.0,77,0.00,,,0.00,fowsr,2013-01-14 19:50:00,
2013-01-14 14:55:00,70.0,64.4,29.65,East,90,0.0,0.0,78,0.00,,,0.00,fowsr,2013-01-14 19:55:00,
2013-01-14 15:00:00,70.0,64.4,29.65,East,90,0.0,0.0,78,0.00,,,0.00,fowsr,2013-01-14 20:00:00,
2013-01-14 15:05:00,70.0,64.1,29.65,East,90,0.0,0.0,77,0.00,,,0.00,fowsr,2013-01-14 20:05:00,
2013-01-14 15:10:00,70.0,64.1,29.65,East,90,0.0,0.0,77,0.00,,,0.00,fowsr,2013-01-14 20:10:00,
2013-01-14 15:15:00,70.3,64.7,29.65,East,90,0.0,0.0,78,0.00,,,0.00,fowsr,2013-01-14 20:15:00,
2013-01-14 15:20:00,70.3,64.7,29.65,East,90,0.0,0.0,78,0.00,,,0.00,fowsr,2013-01-14 20:20:00,
2013-01-14 15:25:00,-999.9,-99.9,29.65,North,2970,916.0,916.0,255,0.00,,,0.00,fowsr,2013-01-14 20:25:00,
2013-01-14 15:30:00,-999.9,-99.9,29.65,North,2970,916.0,916.0,255,0.00,,,0.00,fowsr,2013-01-14 20:30:00,
2013-01-14 15:35:00,70.9,64.6,29.65,East,90,0.0,0.0,76,0.00,,,0.00,fowsr,2013-01-14 20:35:00,
2013-01-14 15:40:00,70.9,64.9,29.65,East,90,0.0,0.0,77,0.00,,,0.00,fowsr,2013-01-14 20:40:00,
2013-01-14 15:45:00,70.9,64.9,29.65,East,90,0.0,0.0,77,0.00,,,0.00,fowsr,2013-01-14 20:45:00,
2013-01-14 15:50:00,70.9,64.9,29.65,East,90,0.0,0.0,77,0.00,,,0.00,fowsr,2013-01-14 20:50:00,
2013-01-14 15:55:00,70.7,64.5,29.65,East,90,0.0,0.0,76,0.00,,,0.00,fowsr,2013-01-14 20:55:00,
2013-01-14 16:00:00,70.7,64.5,29.66,East,90,0.0,0.0,76,0.00,,,0.00,fowsr,2013-01-14 21:00:00,
2013-01-14 16:05:00,70.7,64.5,29.66,East,90,0.0,0.0,76,0.00,,,0.00,fowsr,2013-01-14 21:05:00,
2013-01-14 16:10:00,70.5,64.6,29.66,East,90,0.0,0.0,77,0.00,,,0.00,fowsr,2013-01-14 21:10:00,
2013-01-14 16:15:00,70.5,64.6,29.66,East,90,0.0,0.0,77,0.00,,,0.00,fowsr,2013-01-14 21:15:00,
2013-01-14 16:20:00,70.2,64.5,29.66,East,90,0.0,0.0,78,0.00,,,0.00,fowsr,2013-01-14 21:20:00,
2013-01-14 16:25:00,70.0,64.6,29.66,East,90,0.0,0.0,79,0.00,,,0.00,fowsr,2013-01-14 21:25:00,
2013-01-14 16:30:00,70.0,64.6,29.66,East,90,0.0,0.0,79,0.00,,,0.00,fowsr,2013-01-14 21:30:00,
2013-01-14 16:35:00,69.6,64.6,29.66,East,90,0.0,0.0,80,0.00,,,0.00,fowsr,2013-01-14 21:35:00,
2013-01-14 16:40:00,69.4,64.7,29.67,East,90,0.0,0.0,81,0.00,,,0.00,fowsr,2013-01-14 21:40:00,
2013-01-14 16:45:00,69.3,64.5,29.67,East,90,0.0,0.0,81,0.00,,,0.00,fowsr,2013-01-14 21:45:00,
2013-01-14 16:50:00,69.1,64.3,29.67,East,90,0.0,0.0,81,0.00,,,0.00,fowsr,2013-01-14 21:50:00,
2013-01-14 16:55:00,68.7,64.2,29.67,East,90,0.0,0.0,82,0.00,,,0.00,fowsr,2013-01-14 21:55:00,
2013-01-14 17:00:00,68.7,64.2,29.67,East,90,0.0,0.0,82,0.00,,,0.00,fowsr,2013-01-14 22:00:00,
2013-01-14 17:05:00,68.5,64.1,29.67,East,90,0.0,0.0,82,0.00,,,0.00,fowsr,2013-01-14 22:05:00,
2013-01-14 17:10:00,68.4,63.9,29.67,East,90,0.0,0.0,82,0.00,,,0.00,fowsr,2013-01-14 22:10:00,
2013-01-14 17:15:00,68.2,63.7,29.67,East,90,0.0,0.0,82,0.00,,,0.00,fowsr,2013-01-14 22:15:00,
2013-01-14 17:20:00,68.2,64.0,29.67,East,90,0.0,0.0,83,0.00,,,0.00,fowsr,2013-01-14 22:20:00,
2013-01-14 17:25:00,68.0,63.8,29.67,East,90,0.0,0.0,83,0.00,,,0.00,fowsr,2013-01-14 22:25:00,
2013-01-14 17:30:00,67.8,63.9,29.68,East,90,0.0,0.0,84,0.00,,,0.00,fowsr,2013-01-14 22:30:00,
2013-01-14 17:35:00,67.6,63.7,29.67,East,90,0.0,0.0,84,0.00,,,0.00,fowsr,2013-01-14 22:35:00,
2013-01-14 17:40:00,67.6,63.7,29.67,East,90,0.0,0.0,84,0.00,,,0.00,fowsr,2013-01-14 22:40:00,
2013-01-14 17:45:00,67.5,63.6,29.68,East,90,0.0,0.0,84,0.00,,,0.00,fowsr,2013-01-14 22:45:00,
2013-01-14 17:50:00,67.3,63.6,29.68,East,90,0.0,0.0,85,0.00,,,0.00,fowsr,2013-01-14 22:50:00,
2013-01-14 17:55:00,67.1,63.5,29.68,East,90,0.0,0.0,85,0.00,,,0.00,fowsr,2013-01-14 22:55:00,
2013-01-14 18:00:00,66.9,63.3,29.68,East,90,0.0,0.0,85,0.00,,,0.00,fowsr,2013-01-14 23:00:00,
2013-01-14 18:05:00,66.9,63.3,29.68,East,90,0.0,0.0,85,0.00,,,0.00,fowsr,2013-01-14 23:05:00,
2013-01-14 18:10:00,66.7,63.1,29.68,East,90,0.0,0.0,85,0.00,,,0.00,fowsr,2013-01-14 23:10:00,
2013-01-14 18:15:00,66.7,63.4,29.68,East,90,0.0,0.0,86,0.00,,,0.00,fowsr,2013-01-14 23:15:00,
2013-01-14 18:20:00,66.6,63.2,29.68,East,90,0.0,0.0,86,0.00,,,0.00,fowsr,2013-01-14 23:20:00,
2013-01-14 18:25:00,66.6,63.2,29.68,East,90,0.0,0.0,86,0.00,,,0.00,fowsr,2013-01-14 23:25:00,
2013-01-14 18:30:00,66.4,63.0,29.68,East,90,0.0,0.0,86,0.00,,,0.00,fowsr,2013-01-14 23:30:00,
2013-01-14 18:35:00,66.4,63.3,29.68,East,90,0.0,0.0,87,0.00,,,0.00,fowsr,2013-01-14 23:35:00,
2013-01-14 18:45:00,66.2,63.1,29.68,East,90,0.0,0.0,87,0.00,,,0.00,fowsr,2013-01-14 23:45:00,
2013-01-14 18:50:00,66.2,63.1,29.68,East,90,0.0,0.0,87,0.00,,,0.00,fowsr,2013-01-14 23:50:00,
2013-01-14 18:55:00,66.0,63.2,29.68,East,90,0.0,0.0,88,0.00,,,0.00,fowsr,2013-01-14 23:55:00,
2013-01-14 19:00:00,65.8,63.0,29.67,East,90,0.0,0.0,88,0.00,,,0.00,fowsr,2013-01-15 00:00:00,
2013-01-14 19:05:00,65.8,63.2,29.67,East,90,0.0,0.0,89,0.00,,,0.00,fowsr,2013-01-15 00:05:00,
2013-01-14 19:10:00,65.8,63.2,29.67,East,90,0.0,0.0,89,0.00,,,0.00,fowsr,2013-01-15 00:10:00,
2013-01-14 19:15:00,65.7,63.1,29.67,East,90,0.0,0.0,89,0.00,,,0.00,fowsr,2013-01-15 00:15:00,
2013-01-14 19:20:00,65.7,63.1,29.67,East,90,0.0,0.0,89,0.00,,,0.00,fowsr,2013-01-15 00:20:00,
2013-01-14 19:25:00,65.5,62.9,29.67,East,90,0.0,0.0,89,0.00,,,0.00,fowsr,2013-01-15 00:25:00,
2013-01-14 19:30:00,65.5,62.9,29.67,East,90,0.0,0.0,89,0.00,,,0.00,fowsr,2013-01-15 00:30:00,
2013-01-14 19:35:00,65.5,63.1,29.67,East,90,0.0,0.0,90,0.00,,,0.00,fowsr,2013-01-15 00:35:00,
2013-01-14 19:40:00,65.5,63.1,29.67,East,90,0.0,0.0,90,0.00,,,0.00,fowsr,2013-01-15 00:40:00,
2013-01-14 19:45:00,65.3,63.0,29.67,East,90,0.0,0.0,90,0.00,,,0.00,fowsr,2013-01-15 00:45:00,
2013-01-14 19:50:00,65.3,63.0,29.67,East,90,0.0,0.0,90,0.00,,,0.00,fowsr,2013-01-15 00:50:00,
2013-01-14 19:55:00,65.3,63.0,29.67,East,90,0.0,0.0,90,0.00,,,0.00,fowsr,2013-01-15 00:55:00,
2013-01-14 20:00:00,65.3,63.0,29.67,East,90,0.0,0.0,90,0.00,,,0.00,fowsr,2013-01-15 01:00:00,
2013-01-14 20:05:00,65.3,63.0,29.67,East,90,0.0,0.0,90,0.00,,,0.00,fowsr,2013-01-15 01:05:00,
2013-01-14 20:10:00,65.3,63.0,29.67,East,90,0.0,0.0,90,0.00,,,0.00,fowsr,2013-01-15 01:10:00,
2013-01-14 20:15:00,65.3,63.0,29.67,East,90,0.0,0.0,90,0.00,,,0.00,fowsr,2013-01-15 01:15:00,
2013-01-14 20:20:00,65.3,63.0,29.67,East,90,0.0,0.0,90,0.00,,,0.00,fowsr,2013-01-15 01:20:00,
2013-01-14 20:25:00,65.1,63.0,29.66,East,90,0.0,0.0,91,0.00,,,0.00,fowsr,2013-01-15 01:25:00,
2013-01-14 20:30:00,65.1,63.0,29.66,East,90,0.0,0.0,91,0.00,,,0.00,fowsr,2013-01-15 01:30:00,
2013-01-14 20:35:00,65.1,63.0,29.67,East,90,0.0,0.0,91,0.00,,,0.00,fowsr,2013-01-15 01:35:00,
2013-01-14 20:40:00,65.1,63.0,29.66,East,90,0.0,0.0,91,0.00,,,0.00,fowsr,2013-01-15 01:40:00,
2013-01-14 20:45:00,64.9,62.9,29.66,East,90,0.0,0.0,91,0.00,,,0.00,fowsr,2013-01-15 01:45:00,
2013-01-14 20:50:00,64.9,62.9,29.67,East,90,0.0,0.0,91,0.00,,,0.00,fowsr,2013-01-15 01:50:00,
2013-01-14 20:55:00,64.9,62.9,29.66,East,90,0.0,0.0,91,0.00,,,0.00,fowsr,2013-01-15 01:55:00,
2013-01-14 21:00:00,64.9,62.9,29.66,East,90,0.0,0.0,91,0.00,,,0.00,fowsr,2013-01-15 02:00:00,
2013-01-14 21:05:00,64.8,62.7,29.66,East,90,0.0,0.0,91,0.00,,,0.00,fowsr,2013-01-15 02:05:00,
2013-01-14 21:10:00,64.8,62.7,29.66,East,90,0.0,0.0,91,0.00,,,0.00,fowsr,2013-01-15 02:10:00,
2013-01-14 21:15:00,64.8,62.7,29.66,East,90,0.0,0.0,91,0.00,,,0.00,fowsr,2013-01-15 02:15:00,
2013-01-14 21:20:00,64.6,62.5,29.66,East,90,0.0,0.0,91,0.00,,,0.00,fowsr,2013-01-15 02:20:00,
2013-01-14 21:25:00,64.6,62.5,29.66,East,90,0.0,0.0,91,0.00,,,0.00,fowsr,2013-01-15 02:25:00,
2013-01-14 21:30:00,64.6,62.5,29.66,South,180,0.0,0.7,91,0.00,,,0.00,fowsr,2013-01-15 02:30:00,
2013-01-14 21:35:00,64.6,62.5,29.65,East,90,0.0,0.7,91,0.00,,,0.00,fowsr,2013-01-15 02:35:00,
2013-01-14 21:40:00,64.9,62.9,29.66,SE,135,0.0,0.7,91,0.00,,,0.00,fowsr,2013-01-15 02:40:00,
2013-01-14 21:45:00,65.1,62.8,29.65,SE,135,0.0,0.0,90,0.00,,,0.00,fowsr,2013-01-15 02:45:00,
2013-01-14 21:50:00,65.5,63.1,29.65,SE,135,0.0,0.0,90,0.00,,,0.00,fowsr,2013-01-15 02:50:00,
2013-01-14 21:55:00,65.5,62.9,29.65,SE,135,0.0,1.6,89,0.00,,,0.00,fowsr,2013-01-15 02:55:00,
2013-01-14 22:00:00,65.5,62.9,29.65,SE,135,0.0,0.0,89,0.00,,,0.00,fowsr,2013-01-15 03:00:00,
2013-01-14 22:05:00,65.5,62.6,29.65,SE,135,0.0,0.7,88,0.00,,,0.00,fowsr,2013-01-15 03:05:00,
2013-01-14 22:10:00,65.5,62.6,29.66,East,90,0.0,0.7,88,0.00,,,0.00,fowsr,2013-01-15 03:10:00,
2013-01-14 22:15:00,65.5,62.4,29.66,East,90,0.0,0.7,87,0.00,,,0.00,fowsr,2013-01-15 03:15:00,
2013-01-14 22:20:00,65.5,62.4,29.66,East,90,0.0,1.6,87,0.00,,,0.00,fowsr,2013-01-15 03:20:00,
2013-01-14 22:25:00,65.5,62.4,29.66,ESE,112,0.0,1.6,87,0.00,,,0.00,fowsr,2013-01-15 03:25:00,
2013-01-14 22:30:00,65.5,62.4,29.66,SE,135,0.0,0.0,87,0.00,,,0.00,fowsr,2013-01-15 03:30:00,
2013-01-14 22:35:00,65.5,62.1,29.66,SE,135,0.0,0.0,86,0.00,,,0.00,fowsr,2013-01-15 03:35:00,
2013-01-14 22:40:00,65.5,62.1,29.66,SE,135,0.0,0.0,86,0.00,,,0.00,fowsr,2013-01-15 03:40:00,
2013-01-14 22:45:00,65.3,62.0,29.66,SE,135,0.0,0.7,86,0.00,,,0.00,fowsr,2013-01-15 03:45:00,
2013-01-14 22:50:00,65.3,62.0,29.66,SE,135,0.0,0.7,86,0.00,,,0.00,fowsr,2013-01-15 03:50:00,
2013-01-14 22:55:00,65.3,62.0,29.66,SE,135,0.0,0.7,86,0.00,,,0.00,fowsr,2013-01-15 03:55:00,
2013-01-14 23:00:00,65.1,61.8,29.67,SE,135,0.0,0.7,86,0.00,,,0.00,fowsr,2013-01-15 04:00:00,
2013-01-14 23:05:00,65.1,61.8,29.66,SE,135,0.0,0.7,86,0.00,,,0.00,fowsr,2013-01-15 04:05:00,
2013-01-14 23:10:00,65.1,61.8,29.67,SE,135,0.0,0.7,86,0.00,,,0.00,fowsr,2013-01-15 04:10:00,
2013-01-14 23:15:00,65.3,62.0,29.66,SE,135,0.7,2.2,86,0.00,,,0.00,fowsr,2013-01-15 04:15:00,
2013-01-14 23:20:00,65.5,62.1,29.66,SE,135,0.0,1.6,86,0.00,,,0.00,fowsr,2013-01-15 04:20:00,
2013-01-14 23:25:00,65.5,62.1,29.66,SE,135,0.0,0.7,86,0.00,,,0.00,fowsr,2013-01-15 04:25:00,
2013-01-14 23:35:00,65.5,62.1,29.67,SE,135,0.0,0.7,86,0.00,,,0.00,fowsr,2013-01-15 04:35:00,
2013-01-14 23:40:00,65.5,61.9,29.67,SE,135,0.0,1.6,85,0.00,,,0.00,fowsr,2013-01-15 04:40:00,
2013-01-14 23:45:00,65.8,62.2,29.67,SE,135,0.0,0.0,85,0.00,,,0.00,fowsr,2013-01-15 04:45:00,
2013-01-14 23:50:00,65.5,61.9,29.67,SE,135,0.0,0.0,85,0.00,,,0.00,fowsr,2013-01-15 04:50:00,
2013-01-14 23:55:00,65.5,61.9,29.67,SE,135,0.0,0.0,85,0.00,,,0.00,fowsr,2013-01-15 04:55:00,